sat.trackr.live / text

‹ back to catalog

STARLINK-5668

NORAD 55350 · 2023-013V

PAYLOAD ACTIVE UNKNOWN

§ Identity

Operator
Country
US
Launch date
2023-01-26
Launch site
AFETR
Launch vehicle
Mass (kg)
RCS (m²)

Purposes: comms

External: N2YO · Heavens-Above · Gunter

§ Orbital elements

Epoch: 2026-05-24T23:13:05.043072Z

Period
94.27 min
Inclination
43.0051°
Eccentricity
0.0002096
Mean motion
15.27577568 rev/d
Perigee alt
481.6 km
Apogee alt
484.5 km
Semi-major
6,861.2 km
B*
1.4519e-5
RAAN
232.2399°
Arg perigee
278.3284°
Mean anomaly
81.7330°
Rev number
18,334

§ Raw data

STARLINK-56681 55350U 23013V   26144.96741948  .00000137  00000+0  14519-4 0  99962 55350  43.0051 232.2399 0002096 278.3284  81.7330 15.27577568183348

JSON: /api/v1/satellites/55350 · /tle

For live sub-satellite position, see the globe view (requires WebGL).

§ Visibility from observer

Set your observer location to see the next 7 days of passes ≥ 10°. The values pass through the URL so the page stays shareable.

No JS? Fill the form by hand. The geolocation button needs JavaScript.